COSMOS 1275 DEB, 42228

Orbit data source: Space-Track

COSMOS 1275 DEB, 42228 is space debris in LEO originally from a launch on Thu, 04 Jun 1981 UTC launched from the Plesetsk Missile And Space Complex (PKMTR). Debris objects in space refer to the collection of defunct objects orbiting the Earth. Examples of debris include non-operational satellites, rocket bodies, and fragments generated from explosions, collisions, or faulty payload assembly.

Loading next visibility...
Identifier
42228, 1981-053UU
Orbit
LEO
Country
Flag of CISCIS
Related business
Manufacturer
Unknown
Mission
Spacecraft
Bus & Motor
Unknown
Mass
Unknown
Launch date (UTC)
1981-06-04 (45 years ago)
Launch vehicle
Unknown
Launch site
Plesetsk Missile And Space Complex (PKMTR)
Object type
Payload
Rocket body
Debris
Shape & HBR
Unknown shape, 0.1 m
Radar Cross Section
Small (<0.1 m²)

Expand to show TLE details & history
Last TLE update: 4 months ago

TLE from 4 months ago
0 COSMOS 1275 DEB
1 42228U 81053UU  25310.81870905  .00000620  00000-0  55562-3 0  9998
2 42228  82.9353 350.3611 0038856 276.0128  83.6605 13.82494639 51019
Epoch: 2025-11-06T19:38Z
TLE epoch observation values (Epoch: 2025-11-06T19:38:56.461Z)
Latitude
-0.00003°
Longitude
9.35428°
Altitude
954.924 km
Speed
7.376 km/s
True Right ascension
23h 21m 26s
True Declination
0° 00' 00"
Sunlit
Object was in full shadow at epoch
Visualization orbit readout
Latitude
Unknown
Longitude
Unknown
Altitude
Unknown
Speed
Unknown
Apparent Right ascension
Unknown
Apparent Declination
Unknown
Sunlit
N/A
Visualization observer readout
Local Sidereal Time
09:17:23
Azimuth
Unknown
Elevation
Unknown
Doppler factor
Unknown
Orbital elements
Apogee altitude
980.673 km
Perigee altitude
923.708 km
Semi-major axis
7,330.328 km
Eccentricity
0.00389
Inclination
82.9353°
RAAN
350.3611°
Arg. of periapsis
276.0128°
True anomaly
84.10327°
Mean anomaly
83.6605°
Eccentric anomaly
83.88186°
Mean motion
3.45826 °/min
Orbital period
104.1 mins
BSTAR
0.00055562
Loading maneuver chart data...
Computing Atmospheric mass density...
Loading historical data...
Loading historical data...
Loading historical data...
Loading historical data...
Loading historical data...
Loading historical data...
Loading historical data...

Documentation

Showing up to 5 results
|